Date String (YYYY-MM-DD hh:mm:ss) UTC,Instrument flags,absolute air pressure of the measurement (hPa),sample flow rate (lpm),inlet stack bypass flow (lpm),air temperature of the measurement (°C),ambient temperature measured by the external sensor (°C),aerosol sample conditioner tube jacket temperature (°C),OPC LED temperature (°C),internal box temperature (°C),relative humidity of the measurement (%),span deviation,mass concentration of particles derived from Lorenz-Mie calculation of OPC scattering (μg/m³),mass concentration of particles derived from Lorenz-Mie calculation of OPC scattering (μg/m³),mass concentration of particles derived from Lorenz-Mie calculation of OPC scattering (μg/m³)
DateTimeUTC,F1_M11,P_M11,Q1_M11,Q2_M11,T1_M11,T2_M11,T3_M11,T4_M11,T5_M11,U1_M11,ZSPAN_M11,X0_M11,X2_M11,X1_M11
2023-11-06 15:00:00,SystemResetWarning,0826.6,5.00,000.00,026.9,025.9,000.0,035.1,028.4,12.5,0000.0,0009.34,0003.78,0003.27
2023-11-06 15:01:00,SystemResetWarning,0826.6,5.00,000.00,026.9,025.9,000.0,035.2,028.4,12.5,0000.0,0007.67,0003.75,0003.27
2023-11-06 15:02:00,SystemResetWarning,0826.6,5.00,000.00,026.9,025.9,000.0,035.2,028.4,12.4,0000.0,0007.24,0003.71,0003.27
2023-11-06 15:03:00,SystemResetWarning,0826.6,5.00,000.00,026.9,025.9,000.0,035.2,028.4,12.3,0000.0,0007.47,0003.80,0003.27
2023-11-06 15:04:00,SystemResetWarning,0826.6,5.00,000.00,026.9,025.9,000.0,035.2,028.4,12.3,0000.0,0008.10,0003.94,0003.28
2023-11-06 15:05:00,SystemResetWarning,0826.6,5.00,000.00,026.9,026.0,000.0,035.2,028.4,12.6,0000.0,0009.17,0003.99,0003.29
2023-11-06 15:06:00,SystemResetWarning,0826.6,5.01,000.00,026.9,026.0,000.0,035.2,028.4,12.5,0000.0,0009.33,0004.06,0003.31
2023-11-06 15:07:00,SystemResetWarning,0826.6,5.00,000.00,026.9,026.0,000.0,035.2,028.4,12.5,0000.0,0009.36,0004.08,0003.33
2023-11-06 15:08:00,SystemResetWarning,0826.6,5.00,000.00,026.9,026.0,000.0,035.2,028.4,12.4,0000.0,0009.31,0004.09,0003.34
2023-11-06 15:09:00,SystemResetWarning,0826.6,5.00,000.00,027.0,026.0,000.0,035.2,028.4,12.2,0000.0,0009.45,0004.13,0003.35
2023-11-06 15:10:00,SystemResetWarning,0826.5,5.00,000.00,027.0,026.0,000.0,035.3,028.5,12.2,0000.0,0009.47,0004.18,0003.38
2023-11-06 15:11:00,SystemResetWarning,0826.4,5.00,000.00,027.0,026.1,000.0,035.3,028.5,12.3,0000.0,0009.56,0004.19,0003.38
2023-11-06 15:12:00,SystemResetWarning,0826.5,5.00,000.00,027.0,026.1,000.0,035.3,028.5,12.3,0000.0,0009.66,0004.21,0003.38
2023-11-06 15:13:00,SystemResetWarning,0826.6,5.00,000.00,027.0,026.1,000.0,035.3,028.5,12.0,0000.0,0009.71,0004.22,0003.37
2023-11-06 15:14:00,SystemResetWarning,0826.6,5.00,000.00,027.0,026.1,000.0,035.3,028.5,12.0,0000.0,0009.29,0004.10,0003.35
2023-11-06 15:15:00,SystemResetWarning,0826.6,5.00,000.00,027.1,026.1,000.0,035.3,028.6,12.2,0000.0,0008.52,0003.93,0003.33
2023-11-06 15:16:00,SystemResetWarning,0826.6,5.00,000.00,027.1,026.1,000.0,035.3,028.6,12.1,0000.0,0007.52,0003.88,0003.31
2023-11-06 15:17:00,SystemResetWarning,0826.6,5.00,000.00,027.1,026.1,000.0,035.3,028.6,12.1,0000.0,0007.51,0003.81,0003.28
2023-11-06 15:18:00,SystemResetWarning,0826.6,5.00,000.00,027.1,026.1,000.0,035.3,028.6,12.2,0000.0,0007.41,0003.77,0003.25
2023-11-06 15:19:00,SystemResetWarning,0826.6,5.01,000.00,027.1,026.2,000.0,035.4,028.6,12.2,0000.0,0007.68,0003.71,0003.23
2023-11-06 15:20:00,SystemResetWarning,0826.6,5.00,000.00,027.1,026.2,000.0,035.4,028.6,12.1,0000.0,0008.58,0003.66,0003.20
2023-11-06 15:21:00,SystemResetWarning,0826.6,5.00,000.00,027.1,026.2,000.0,035.4,028.6,12.2,0000.0,0008.58,0003.62,0003.16
2023-11-06 15:22:00,SystemResetWarning,0826.6,4.98,000.00,027.1,026.3,000.0,035.4,028.7,12.5,0000.0,0008.50,0003.59,0003.13
2023-11-06 15:23:00,SystemResetWarning,0826.5,4.99,000.00,027.2,026.3,000.0,035.4,028.7,12.5,0000.0,0008.36,0003.57,0003.12
2023-11-06 15:24:00,SystemResetWarning,0826.4,5.00,000.00,027.2,026.3,000.0,035.4,028.7,12.3,0000.0,0008.37,0003.56,0003.12
2023-11-06 15:25:00,SystemResetWarning,0826.4,5.01,000.00,027.2,026.4,000.0,035.4,028.7,12.5,0000.0,0008.52,0003.60,0003.11
2023-11-06 15:26:00,SystemResetWarning,0826.4,5.00,000.00,027.2,026.4,000.0,035.5,028.8,12.3,0000.0,0008.77,0003.62,0003.11
2023-11-06 15:27:00,SystemResetWarning,0826.4,5.01,000.00,027.3,026.5,000.0,035.5,028.8,12.4,0000.0,0009.01,0003.64,0003.10
2023-11-06 15:28:00,SystemResetWarning,0826.4,5.00,000.00,027.3,026.5,000.0,035.5,028.8,12.1,0000.0,0009.14,0003.63,0003.10
2023-11-06 15:29:00,SystemResetWarning,0826.3,4.99,000.00,027.3,026.5,000.0,035.5,028.8,12.0,0000.0,0009.23,0003.59,0003.09
2023-11-06 15:30:00,SystemResetWarning,0826.4,5.00,000.00,027.3,026.5,000.0,035.5,028.9,12.0,0000.0,0009.44,0003.55,0003.07
2023-11-06 15:31:00,SystemResetWarning,0826.4,4.99,000.00,027.3,026.6,000.0,035.5,028.9,12.2,0000.0,0008.55,0003.56,0003.05
2023-11-06 15:32:00,SystemResetWarning,0826.5,4.99,000.00,027.4,026.6,000.0,035.5,028.9,12.3,0000.0,0008.24,0003.55,0003.03
2023-11-06 15:33:00,SystemResetWarning,0826.5,5.00,000.00,027.4,026.6,000.0,035.6,028.9,12.3,0000.0,0008.77,0003.57,0003.03
2023-11-06 15:34:00,SystemResetWarning,0826.4,5.00,000.00,027.4,026.6,000.0,035.6,028.9,12.4,0000.0,0008.81,0003.58,0003.03
2023-11-06 15:35:00,SystemResetWarning,0826.4,5.00,000.00,027.4,026.7,000.0,035.6,029.0,12.2,0000.0,0008.86,0003.59,0002.99
2023-11-06 15:36:00,SystemResetWarning,0826.5,5.01,000.00,027.4,026.7,000.0,035.6,029.0,12.0,0000.0,0008.68,0003.53,0002.96
2023-11-06 15:37:00,SystemResetWarning,0826.4,5.00,000.00,027.5,026.7,000.0,035.6,029.0,12.1,0000.0,0008.49,0003.48,0002.94
2023-11-06 15:38:00,SystemResetWarning,0826.4,5.00,000.00,027.5,026.7,000.0,035.7,029.0,12.1,0000.0,0008.16,0003.44,0002.93
2023-11-06 15:39:00,SystemResetWarning,0826.4,4.99,000.00,027.5,026.8,000.0,035.7,029.0,12.1,0000.0,0007.76,0003.41,0002.92
2023-11-06 15:40:00,SystemResetWarning,0826.4,4.99,000.00,027.5,026.8,000.0,035.7,029.0,12.2,0000.0,0008.08,0003.44,0002.91
2023-11-06 15:41:00,SystemResetWarning,0826.4,5.00,000.00,027.5,026.8,000.0,035.7,029.1,12.0,0000.0,0007.96,0003.47,0002.91
2023-11-06 15:42:00,SystemResetWarning,0826.4,5.00,000.00,027.5,026.8,000.0,035.7,029.1,12.0,0000.0,0008.16,0003.47,0002.91
2023-11-06 15:43:00,SystemResetWarning,0826.4,5.00,000.00,027.6,026.8,000.0,035.8,029.1,12.2,0000.0,0008.73,0003.49,0002.92
2023-11-06 15:44:00,SystemResetWarning,0826.3,5.00,000.00,027.6,026.8,000.0,035.8,029.1,12.0,0000.0,0008.65,0003.47,0002.92
2023-11-06 15:45:00,SystemResetWarning,0826.3,5.00,000.00,027.6,026.9,000.0,035.8,029.2,12.1,0000.0,0008.54,0003.44,0002.90
2023-11-06 15:46:00,SystemResetWarning,0826.3,5.00,000.00,027.6,026.9,000.0,035.8,029.2,12.0,0000.0,0008.53,0003.40,0002.88
2023-11-06 15:47:00,SystemResetWarning,0826.4,5.00,000.00,027.6,026.9,000.0,035.8,029.2,11.7,0000.0,0008.48,0003.41,0002.89
2023-11-06 15:48:00,SystemResetWarning,0826.4,5.00,000.00,027.7,026.9,000.0,035.9,029.2,11.8,0000.0,0008.42,0003.41,0002.88
2023-11-06 15:49:00,SystemResetWarning,0826.4,4.99,000.00,027.7,027.0,000.0,035.9,029.2,11.9,0000.0,0008.48,0003.43,0002.89
2023-11-06 15:50:00,SystemResetWarning,0826.4,5.00,000.00,027.7,027.0,000.0,035.9,029.2,12.0,0000.0,0008.76,0003.49,0002.89
2023-11-06 15:51:00,SystemResetWarning,0826.4,4.99,000.00,027.7,027.0,000.0,035.9,029.3,12.0,0000.0,0008.76,0003.50,0002.90
2023-11-06 15:52:00,SystemResetWarning,0826.3,5.00,000.00,027.7,027.0,000.0,035.9,029.3,11.7,0000.0,0008.85,0003.48,0002.91
2023-11-06 15:53:00,SystemResetWarning,0826.3,5.00,000.00,027.7,027.0,000.0,035.9,029.3,11.8,0000.0,0009.93,0003.48,0002.90
2023-11-06 15:54:00,SystemResetWarning,0826.3,5.02,000.00,027.8,027.0,000.0,036.0,029.3,13.1,0000.0,0009.73,0003.47,0002.89
2023-11-06 15:55:00,SystemResetWarning,0826.4,5.01,000.00,027.8,027.1,000.0,036.0,029.3,12.6,0000.0,0009.26,0003.45,0002.90
2023-11-06 15:56:00,SystemResetWarning,0826.4,5.00,000.00,027.8,027.1,000.0,036.0,029.4,12.8,0000.0,0009.03,0003.45,0002.92
2023-11-06 15:57:00,SystemResetWarning,0826.4,4.99,000.00,027.8,027.1,000.0,036.0,029.4,14.0,0000.0,0009.00,0003.44,0002.94
2023-11-06 15:58:00,SystemResetWarning,0826.4,4.99,000.00,027.9,027.1,000.0,036.0,029.4,13.2,0000.0,0009.45,0003.46,0002.95
2023-11-06 15:59:00,SystemResetWarning,0826.4,5.00,000.00,027.9,027.2,000.0,036.1,029.4,12.3,0000.0,0010.34,0003.49,0002.99
